Location: Treviso
(45.6669°N, 12.2430°E)
Time: 02:58:06
(UTC+01:00)

AAUSAT CUBESAT 2 - Visible Passes

Search period start: 19 November 2019 00:00
Search period end: 29 November 2019 00:00
Orbit: 574 x 592 km, 97.5° (Epoch: 17 November)

Date Brightness Start Highest point End Pass type
(mag) Time Alt. Az. Time Alt. Az. Time Alt. Az.
19 Nov ? 06:37:16 10° NNE 06:41:21 58° E 06:45:26 10° S visible
19 Nov ? 17:28:49 10° SSE 17:32:45 48° ENE 17:36:42 10° N visible
19 Nov ? 19:05:57 10° SW 19:08:26 16° W 19:10:55 10° NW visible
20 Nov ? 17:34:31 10° SSE 17:38:31 56° ENE 17:42:32 10° N visible
20 Nov ? 19:12:14 10° WSW 19:14:17 13° W 19:16:20 10° WNW visible
21 Nov ? 17:40:15 10° SSE 17:44:17 66° ENE 17:48:22 10° N visible
21 Nov ? 19:18:42 10° WSW 19:20:08 12° W 19:21:35 10° WNW visible
22 Nov ? 17:46:00 10° SSE 17:50:04 77° ENE 17:54:10 10° N visible
23 Nov ? 05:28:11 10° E 05:28:36 10° E 05:29:02 10° E visible
23 Nov ? 17:51:46 10° SSE 17:55:50 89° E 17:59:58 10° NNW visible
24 Nov ? 05:32:53 10° ENE 05:34:28 12° E 05:36:04 10° ESE visible
24 Nov ? 17:57:33 10° S 18:01:38 79° WSW 18:05:45 10° NNW visible
25 Nov ? 05:38:10 10° ENE 05:40:20 14° E 05:42:29 10° ESE visible
25 Nov ? 18:03:22 10° S 18:07:26 68° W 18:11:32 10° NNW visible
26 Nov ? 05:43:36 10° NE 05:46:11 16° E 05:48:45 10° SE visible
26 Nov ? 18:09:13 10° S 18:13:14 58° W 18:17:18 10° NNW visible
27 Nov ? 05:49:07 10° NE 05:52:01 18° E 05:54:56 10° SE visible
27 Nov ? 18:15:04 10° S 18:19:02 49° W 18:23:02 10° NNW visible
28 Nov ? 05:54:41 10° NE 05:57:52 21° E 06:01:02 10° SE visible
28 Nov ? 18:20:57 10° S 18:24:50 42° W 18:28:46 10° NNW visible
